Year,Month,Day,Hour,Minute,Value (Times are PST for temperature in C)
2017,09,20,00,00,6.80
2017,09,20,00,01,6.80
2017,09,20,00,02,6.80
2017,09,20,00,03,6.80
2017,09,20,00,04,6.70
2017,09,20,00,05,6.70
2017,09,20,00,06,6.70
2017,09,20,00,07,6.70
2017,09,20,00,08,6.70
2017,09,20,00,09,6.70
2017,09,20,00,10,6.70
2017,09,20,00,11,6.70
2017,09,20,00,12,6.70
2017,09,20,00,13,6.60
2017,09,20,00,14,6.60
2017,09,20,00,15,6.60
2017,09,20,00,16,6.60
2017,09,20,00,17,6.60
2017,09,20,00,18,6.60
2017,09,20,00,19,6.50
2017,09,20,00,20,6.50
2017,09,20,00,21,6.50
2017,09,20,00,22,6.50
2017,09,20,00,23,6.40
2017,09,20,00,24,6.40
2017,09,20,00,25,6.40
2017,09,20,00,26,6.40
2017,09,20,00,27,6.40
2017,09,20,00,28,6.40
2017,09,20,00,29,6.40
2017,09,20,00,30,6.40
2017,09,20,00,31,6.40
2017,09,20,00,32,6.40
2017,09,20,00,33,6.30
2017,09,20,00,34,6.30
2017,09,20,00,35,6.30
2017,09,20,00,36,6.30
2017,09,20,00,37,6.40
2017,09,20,00,38,6.40
2017,09,20,00,39,6.40
2017,09,20,00,40,6.40
2017,09,20,00,41,6.30
2017,09,20,00,42,6.30
2017,09,20,00,43,6.30
2017,09,20,00,44,6.30
2017,09,20,00,45,6.30
2017,09,20,00,46,6.30
2017,09,20,00,47,6.20
2017,09,20,00,48,6.20
2017,09,20,00,49,6.20
2017,09,20,00,50,6.20
2017,09,20,00,51,6.20
2017,09,20,00,52,6.20
2017,09,20,00,53,6.10
2017,09,20,00,54,6.10
2017,09,20,00,55,6.10
2017,09,20,00,56,6.10
2017,09,20,00,57,6.10
2017,09,20,00,58,6.10
2017,09,20,00,59,6.10
2017,09,20,01,00,6.10
2017,09,20,01,01,6.10
2017,09,20,01,02,6.10
2017,09,20,01,03,6.10
2017,09,20,01,04,6.10
2017,09,20,01,05,6.10
2017,09,20,01,06,6.00
2017,09,20,01,07,6.00
2017,09,20,01,08,6.00
2017,09,20,01,09,6.00
2017,09,20,01,10,6.00
2017,09,20,01,11,6.00
2017,09,20,01,12,6.00
2017,09,20,01,13,6.00
2017,09,20,01,14,6.00
2017,09,20,01,15,6.00
2017,09,20,01,16,6.00
2017,09,20,01,17,6.00
2017,09,20,01,18,6.00
2017,09,20,01,19,6.00
2017,09,20,01,20,6.00
2017,09,20,01,21,6.00
2017,09,20,01,22,6.00
2017,09,20,01,23,6.00
2017,09,20,01,24,6.00
2017,09,20,01,25,6.00
2017,09,20,01,26,6.00
2017,09,20,01,27,6.00
2017,09,20,01,28,6.00
2017,09,20,01,29,5.90
2017,09,20,01,30,5.90
2017,09,20,01,31,5.90
2017,09,20,01,32,6.00
2017,09,20,01,33,5.90
2017,09,20,01,34,6.00
2017,09,20,01,35,6.00
2017,09,20,01,36,6.00
2017,09,20,01,37,6.00
2017,09,20,01,38,6.00
2017,09,20,01,39,6.00
2017,09,20,01,40,6.00
2017,09,20,01,41,6.00
2017,09,20,01,42,6.00
2017,09,20,01,43,6.00
2017,09,20,01,44,5.90
2017,09,20,01,45,5.90
2017,09,20,01,46,5.90
2017,09,20,01,47,5.90
2017,09,20,01,48,5.90
2017,09,20,01,49,5.90
2017,09,20,01,50,5.80
2017,09,20,01,51,5.80
2017,09,20,01,52,5.80
2017,09,20,01,53,5.80
2017,09,20,01,54,5.80
2017,09,20,01,55,5.80
2017,09,20,01,56,5.70
2017,09,20,01,57,5.70
2017,09,20,01,58,5.70
2017,09,20,01,59,5.70
2017,09,20,02,00,5.70
2017,09,20,02,01,5.70
2017,09,20,02,02,5.70
2017,09,20,02,03,5.70
2017,09,20,02,04,5.70
2017,09,20,02,05,5.70
2017,09,20,02,06,5.70
2017,09,20,02,07,5.60
2017,09,20,02,08,5.60
2017,09,20,02,09,5.60
2017,09,20,02,10,5.60
2017,09,20,02,11,5.70
2017,09,20,02,12,5.70
2017,09,20,02,13,5.70
2017,09,20,02,14,5.70
2017,09,20,02,15,5.70
2017,09,20,02,16,5.70
2017,09,20,02,17,5.70
2017,09,20,02,18,5.70
2017,09,20,02,19,5.70
2017,09,20,02,20,5.70
2017,09,20,02,21,5.70
2017,09,20,02,22,5.70
2017,09,20,02,23,5.70
2017,09,20,02,24,5.70
2017,09,20,02,25,5.60
2017,09,20,02,26,5.60
2017,09,20,02,27,5.60
2017,09,20,02,28,5.60
2017,09,20,02,29,5.60
2017,09,20,02,30,5.60
2017,09,20,02,31,5.60
2017,09,20,02,32,5.60
2017,09,20,02,33,5.60
2017,09,20,02,34,5.60
2017,09,20,02,35,5.60
2017,09,20,02,36,5.60
2017,09,20,02,37,5.60
2017,09,20,02,38,5.60
2017,09,20,02,39,5.60
2017,09,20,02,40,5.60
2017,09,20,02,41,5.60
2017,09,20,02,42,5.50
2017,09,20,02,43,5.50
2017,09,20,02,44,5.50
2017,09,20,02,45,5.50
2017,09,20,02,46,5.50
2017,09,20,02,47,5.60
2017,09,20,02,48,5.50
2017,09,20,02,49,5.50
2017,09,20,02,50,5.50
2017,09,20,02,51,5.50
2017,09,20,02,52,5.50
2017,09,20,02,53,5.60
2017,09,20,02,54,5.60
2017,09,20,02,55,5.60
2017,09,20,02,56,5.60
2017,09,20,02,57,5.60
2017,09,20,02,58,5.60
2017,09,20,02,59,5.60
2017,09,20,03,00,5.60
2017,09,20,03,01,5.60
2017,09,20,03,02,5.60
2017,09,20,03,03,5.60
2017,09,20,03,04,5.60
2017,09,20,03,05,5.70
2017,09,20,03,06,5.70
2017,09,20,03,07,5.70
2017,09,20,03,08,5.70
2017,09,20,03,09,5.70
2017,09,20,03,10,5.70
2017,09,20,03,11,5.80
2017,09,20,03,12,5.80
2017,09,20,03,13,5.80
2017,09,20,03,14,5.80
2017,09,20,03,15,5.80
2017,09,20,03,16,5.80
2017,09,20,03,17,5.90
2017,09,20,03,18,5.90
2017,09,20,03,19,5.90
2017,09,20,03,20,5.90
2017,09,20,03,21,5.90
2017,09,20,03,22,5.90
2017,09,20,03,23,5.90
2017,09,20,03,24,5.90
2017,09,20,03,25,5.90
2017,09,20,03,26,5.90
2017,09,20,03,27,5.90
2017,09,20,03,28,5.90
2017,09,20,03,29,6.00
2017,09,20,03,30,6.00
2017,09,20,03,31,6.00
2017,09,20,03,32,6.00
2017,09,20,03,33,6.00
2017,09,20,03,34,6.00
2017,09,20,03,35,6.00
2017,09,20,03,36,6.00
2017,09,20,03,37,6.00
2017,09,20,03,38,6.10
2017,09,20,03,39,6.10
2017,09,20,03,40,6.10
2017,09,20,03,41,6.10
2017,09,20,03,42,6.10
2017,09,20,03,43,6.10
2017,09,20,03,44,6.10
2017,09,20,03,45,6.10
2017,09,20,03,46,6.10
2017,09,20,03,47,6.10
2017,09,20,03,48,6.10
2017,09,20,03,49,6.10
2017,09,20,03,50,6.10
2017,09,20,03,51,6.10
2017,09,20,03,52,6.10
2017,09,20,03,53,6.20
2017,09,20,03,54,6.20
2017,09,20,03,55,6.20
2017,09,20,03,56,6.20
2017,09,20,03,57,6.20
2017,09,20,03,58,6.30
2017,09,20,03,59,6.30
2017,09,20,04,00,6.30
2017,09,20,04,01,6.30
2017,09,20,04,02,6.30
2017,09,20,04,03,6.30
2017,09,20,04,04,6.30
2017,09,20,04,05,6.30
2017,09,20,04,06,6.30
2017,09,20,04,07,6.30
2017,09,20,04,08,6.30
2017,09,20,04,09,6.30
2017,09,20,04,10,6.40
2017,09,20,04,11,6.50
2017,09,20,04,12,6.50
2017,09,20,04,13,6.50
2017,09,20,04,14,6.50
2017,09,20,04,15,6.50
2017,09,20,04,16,6.40
2017,09,20,04,17,6.40
2017,09,20,04,18,6.50
2017,09,20,04,19,6.60
2017,09,20,04,20,6.60
2017,09,20,04,21,6.60
2017,09,20,04,22,6.60
2017,09,20,04,23,6.60
2017,09,20,04,24,6.60
2017,09,20,04,25,6.60
2017,09,20,04,26,6.60
2017,09,20,04,27,6.60
2017,09,20,04,28,6.60
2017,09,20,04,29,6.60
2017,09,20,04,30,6.70
2017,09,20,04,31,6.70
2017,09,20,04,32,6.70
2017,09,20,04,33,6.70
2017,09,20,04,34,6.70
2017,09,20,04,35,6.70
2017,09,20,04,36,6.70
2017,09,20,04,37,6.60
2017,09,20,04,38,6.70
2017,09,20,04,39,6.70
2017,09,20,04,40,6.70
2017,09,20,04,41,6.70
2017,09,20,04,42,6.70
2017,09,20,04,43,6.80
2017,09,20,04,44,6.80
2017,09,20,04,45,6.80
2017,09,20,04,46,6.90
2017,09,20,04,47,6.90
2017,09,20,04,48,6.90
2017,09,20,04,49,6.90
2017,09,20,04,50,7.00
2017,09,20,04,51,7.00
2017,09,20,04,52,7.00
2017,09,20,04,53,7.10
2017,09,20,04,54,7.10
2017,09,20,04,55,7.20
2017,09,20,04,56,7.20
2017,09,20,04,57,7.20
2017,09,20,04,58,7.20
2017,09,20,04,59,7.20
2017,09,20,05,00,7.20
2017,09,20,05,01,7.20
2017,09,20,05,02,7.20
2017,09,20,05,03,7.20
2017,09,20,05,04,7.20
2017,09,20,05,05,7.30
2017,09,20,05,06,7.30
2017,09,20,05,07,7.30
2017,09,20,05,08,7.30
2017,09,20,05,09,7.30
2017,09,20,05,10,7.30
2017,09,20,05,11,7.30
2017,09,20,05,12,7.30
2017,09,20,05,13,7.30
2017,09,20,05,14,7.30
2017,09,20,05,15,7.30
2017,09,20,05,16,7.20
2017,09,20,05,17,7.20
2017,09,20,05,18,7.20
2017,09,20,05,19,7.20
2017,09,20,05,20,7.20
2017,09,20,05,21,7.20
2017,09,20,05,22,7.20
2017,09,20,05,23,7.20
2017,09,20,05,24,7.20
2017,09,20,05,25,7.20
2017,09,20,05,26,7.20
2017,09,20,05,27,7.20
2017,09,20,05,28,7.20
2017,09,20,05,29,7.20
2017,09,20,05,30,7.20
2017,09,20,05,31,7.20
2017,09,20,05,32,7.20
2017,09,20,05,33,7.30
2017,09,20,05,34,7.30
2017,09,20,05,35,7.30
2017,09,20,05,36,7.30
2017,09,20,05,37,7.40
2017,09,20,05,38,7.40
2017,09,20,05,39,7.40
2017,09,20,05,40,7.40
2017,09,20,05,41,7.40
2017,09,20,05,42,7.40
2017,09,20,05,43,7.40
2017,09,20,05,44,7.40
2017,09,20,05,45,7.30
2017,09,20,05,46,7.30
2017,09,20,05,47,7.30
2017,09,20,05,48,7.20
2017,09,20,05,49,7.20
2017,09,20,05,50,7.20
2017,09,20,05,51,7.20
2017,09,20,05,52,7.20
2017,09,20,05,53,7.20
2017,09,20,05,54,7.20
2017,09,20,05,55,7.20
2017,09,20,05,56,7.20
2017,09,20,05,57,7.10
2017,09,20,05,58,7.10
2017,09,20,05,59,7.10
2017,09,20,06,00,7.10
2017,09,20,06,01,7.00
2017,09,20,06,02,7.00
2017,09,20,06,03,6.90
2017,09,20,06,04,6.90
2017,09,20,06,05,6.90
2017,09,20,06,06,6.90
2017,09,20,06,07,6.90
2017,09,20,06,08,6.90
2017,09,20,06,09,6.90
2017,09,20,06,10,6.90
2017,09,20,06,11,6.90
2017,09,20,06,12,6.90
2017,09,20,06,13,6.80
2017,09,20,06,14,6.80
2017,09,20,06,15,6.80
2017,09,20,06,16,6.80
2017,09,20,06,17,6.80
2017,09,20,06,18,6.80
2017,09,20,06,19,6.80
2017,09,20,06,20,6.80
2017,09,20,06,21,6.80
2017,09,20,06,22,6.70
2017,09,20,06,23,6.70
2017,09,20,06,24,6.70
2017,09,20,06,25,6.70
2017,09,20,06,26,6.70
2017,09,20,06,27,6.70
2017,09,20,06,28,6.70
2017,09,20,06,29,6.60
2017,09,20,06,30,6.60
2017,09,20,06,31,6.60
2017,09,20,06,32,6.60
2017,09,20,06,33,6.60
2017,09,20,06,34,6.50
2017,09,20,06,35,6.50
2017,09,20,06,36,6.50
2017,09,20,06,37,6.40
2017,09,20,06,38,6.40
2017,09,20,06,39,6.40
2017,09,20,06,40,6.40
2017,09,20,06,41,6.40
2017,09,20,06,42,6.40
2017,09,20,06,43,6.30
2017,09,20,06,44,6.30
2017,09,20,06,45,6.30
2017,09,20,06,46,6.30
2017,09,20,06,47,6.30
2017,09,20,06,48,6.30
2017,09,20,06,49,6.30
2017,09,20,06,50,6.30
2017,09,20,06,51,6.30
2017,09,20,06,52,6.30
2017,09,20,06,53,6.30
2017,09,20,06,54,6.30
2017,09,20,06,55,6.30
2017,09,20,06,56,6.30
2017,09,20,06,57,6.30
2017,09,20,06,58,6.30
2017,09,20,06,59,6.30
2017,09,20,07,00,6.30
2017,09,20,07,01,6.30
2017,09,20,07,02,6.30
2017,09,20,07,03,6.30
2017,09,20,07,04,6.30
2017,09,20,07,05,6.20
2017,09,20,07,06,6.20
2017,09,20,07,07,6.20
2017,09,20,07,08,6.20
2017,09,20,07,09,6.20
2017,09,20,07,10,6.20
2017,09,20,07,11,6.20
2017,09,20,07,12,6.20
2017,09,20,07,13,6.20
2017,09,20,07,14,6.10
2017,09,20,07,15,6.10
2017,09,20,07,16,6.10
2017,09,20,07,17,6.10
2017,09,20,07,18,6.10
2017,09,20,07,19,6.10
2017,09,20,07,20,6.10
2017,09,20,07,21,6.10
2017,09,20,07,22,6.10
2017,09,20,07,23,6.10
2017,09,20,07,24,6.10
2017,09,20,07,25,6.10
2017,09,20,07,26,6.10
2017,09,20,07,27,6.10
2017,09,20,07,28,6.20
2017,09,20,07,29,6.20
2017,09,20,07,30,6.20
2017,09,20,07,31,6.20
2017,09,20,07,32,6.20
2017,09,20,07,33,6.20
2017,09,20,07,34,6.10
2017,09,20,07,35,6.20
2017,09,20,07,36,6.10
2017,09,20,07,37,6.10
2017,09,20,07,38,6.10
2017,09,20,07,39,6.10
2017,09,20,07,40,6.10
2017,09,20,07,41,6.10
2017,09,20,07,42,6.10
2017,09,20,07,43,6.10
2017,09,20,07,44,6.10
2017,09,20,07,45,6.20
2017,09,20,07,46,6.20
2017,09,20,07,47,6.20
2017,09,20,07,48,6.20
2017,09,20,07,49,6.20
2017,09,20,07,50,6.20
2017,09,20,07,51,6.30
2017,09,20,07,52,6.30
2017,09,20,07,53,6.30
2017,09,20,07,54,6.30
2017,09,20,07,55,6.30
2017,09,20,07,56,6.40
2017,09,20,07,57,6.40
2017,09,20,07,58,6.40
2017,09,20,07,59,6.40
2017,09,20,08,00,6.40
2017,09,20,08,01,6.50
2017,09,20,08,02,6.50
2017,09,20,08,03,6.50
2017,09,20,08,04,6.60
2017,09,20,08,05,6.60
2017,09,20,08,06,6.60
2017,09,20,08,07,6.70
2017,09,20,08,08,6.70
2017,09,20,08,09,6.70
2017,09,20,08,10,6.70
2017,09,20,08,11,6.80
2017,09,20,08,12,6.80
2017,09,20,08,13,6.80
2017,09,20,08,14,6.90
2017,09,20,08,15,7.00
2017,09,20,08,16,7.00
2017,09,20,08,17,7.10
2017,09,20,08,18,7.10
2017,09,20,08,19,7.20
2017,09,20,08,20,7.20
2017,09,20,08,21,7.30
2017,09,20,08,22,7.30
2017,09,20,08,23,7.40
2017,09,20,08,24,7.40
2017,09,20,08,25,7.40
2017,09,20,08,26,7.50
2017,09,20,08,27,7.50
2017,09,20,08,28,7.60
2017,09,20,08,29,7.60
2017,09,20,08,30,7.70
2017,09,20,08,31,7.70
2017,09,20,08,32,7.70
2017,09,20,08,33,7.80
2017,09,20,08,34,7.80
2017,09,20,08,35,7.90
2017,09,20,08,36,8.00
2017,09,20,08,37,8.00
2017,09,20,08,38,8.10
2017,09,20,08,39,8.10
2017,09,20,08,40,8.20
2017,09,20,08,41,8.30
2017,09,20,08,42,8.30
2017,09,20,08,43,8.30
2017,09,20,08,44,8.40
2017,09,20,08,45,8.40
2017,09,20,08,46,8.40
2017,09,20,08,47,8.40
2017,09,20,08,48,8.40
2017,09,20,08,49,8.40
2017,09,20,08,50,8.40
2017,09,20,08,51,8.40
2017,09,20,08,52,8.40
2017,09,20,08,53,8.50
2017,09,20,08,54,8.50
2017,09,20,08,55,8.60
2017,09,20,08,56,8.60
2017,09,20,08,57,8.60
2017,09,20,08,58,8.70
2017,09,20,08,59,8.80
2017,09,20,09,00,8.80
2017,09,20,09,01,8.90
2017,09,20,09,02,8.90
2017,09,20,09,03,9.00
2017,09,20,09,04,9.00
2017,09,20,09,05,9.10
2017,09,20,09,06,9.20
2017,09,20,09,07,9.20
2017,09,20,09,08,9.20
2017,09,20,09,09,9.30
2017,09,20,09,10,9.30
2017,09,20,09,11,9.30
2017,09,20,09,12,9.30
2017,09,20,09,13,9.40
2017,09,20,09,14,9.40
2017,09,20,09,15,9.50
2017,09,20,09,16,9.50
2017,09,20,09,17,9.60
2017,09,20,09,18,9.60
2017,09,20,09,19,9.70
2017,09,20,09,20,9.80
2017,09,20,09,21,9.80
2017,09,20,09,22,9.80
2017,09,20,09,23,9.90
2017,09,20,09,24,9.90
2017,09,20,09,25,10.00
2017,09,20,09,26,10.00
2017,09,20,09,27,10.10
2017,09,20,09,28,10.10
2017,09,20,09,29,10.10
2017,09,20,09,30,10.10
2017,09,20,09,31,10.10
2017,09,20,09,32,10.20
2017,09,20,09,33,10.20
2017,09,20,09,34,10.20
2017,09,20,09,35,10.20
2017,09,20,09,36,10.20
2017,09,20,09,37,10.20
2017,09,20,09,38,10.30
2017,09,20,09,39,10.30
2017,09,20,09,40,10.30
2017,09,20,09,41,10.30
2017,09,20,09,42,10.40
2017,09,20,09,43,10.40
2017,09,20,09,44,10.50
2017,09,20,09,45,10.50
2017,09,20,09,46,10.60
2017,09,20,09,47,10.60
2017,09,20,09,48,10.60
2017,09,20,09,49,10.70
2017,09,20,09,50,10.70
2017,09,20,09,51,10.80
2017,09,20,09,52,10.80
2017,09,20,09,53,10.90
2017,09,20,09,54,10.90
2017,09,20,09,55,11.00
2017,09,20,09,56,11.00
2017,09,20,09,57,11.00
2017,09,20,09,58,11.10
2017,09,20,09,59,11.10
2017,09,20,10,00,11.20
2017,09,20,10,01,11.20
2017,09,20,10,02,11.30
2017,09,20,10,03,11.30
2017,09,20,10,04,11.40
2017,09,20,10,05,11.40
2017,09,20,10,06,11.40
2017,09,20,10,07,11.50
2017,09,20,10,08,11.50
2017,09,20,10,09,11.60
2017,09,20,10,10,11.60
2017,09,20,10,11,11.70
2017,09,20,10,12,11.70
2017,09,20,10,13,11.80
2017,09,20,10,14,11.80
2017,09,20,10,15,11.90
2017,09,20,10,16,11.80
2017,09,20,10,17,11.80
2017,09,20,10,18,11.70
2017,09,20,10,19,11.70
2017,09,20,10,20,11.70
2017,09,20,10,21,11.70
2017,09,20,10,22,11.80
2017,09,20,10,23,11.80
2017,09,20,10,24,11.80
2017,09,20,10,25,11.90
2017,09,20,10,26,11.90
2017,09,20,10,27,11.90
2017,09,20,10,28,11.90
2017,09,20,10,29,12.00
2017,09,20,10,30,12.00
2017,09,20,10,31,12.00
2017,09,20,10,32,11.90
2017,09,20,10,33,12.00
2017,09,20,10,34,12.00
2017,09,20,10,35,12.10
2017,09,20,10,36,12.10
2017,09,20,10,37,12.10
2017,09,20,10,38,12.10
2017,09,20,10,39,12.10
2017,09,20,10,40,12.10
2017,09,20,10,41,12.10
2017,09,20,10,42,12.10
2017,09,20,10,43,12.20
2017,09,20,10,44,12.20
2017,09,20,10,45,12.20
2017,09,20,10,46,12.30
2017,09,20,10,47,12.30
2017,09,20,10,48,12.30
2017,09,20,10,49,12.30
2017,09,20,10,50,12.30
2017,09,20,10,51,12.40
2017,09,20,10,52,12.30
2017,09,20,10,53,12.30
2017,09,20,10,54,12.30
2017,09,20,10,55,12.40
2017,09,20,10,56,12.40
2017,09,20,10,57,12.40
2017,09,20,10,58,12.40
2017,09,20,10,59,12.40
2017,09,20,11,00,12.30
2017,09,20,11,01,12.30
2017,09,20,11,02,12.30
2017,09,20,11,03,12.30
2017,09,20,11,04,12.30
2017,09,20,11,05,12.30
2017,09,20,11,06,12.40
2017,09,20,11,07,12.40
2017,09,20,11,08,12.50
2017,09,20,11,09,12.50
2017,09,20,11,10,12.50
2017,09,20,11,11,12.60
2017,09,20,11,12,12.60
2017,09,20,11,13,12.70
2017,09,20,11,14,12.70
2017,09,20,11,15,12.70
2017,09,20,11,16,12.70
2017,09,20,11,17,12.70
2017,09,20,11,18,12.70
2017,09,20,11,19,12.70
2017,09,20,11,20,12.70
2017,09,20,11,21,12.70
2017,09,20,11,22,12.70
2017,09,20,11,23,12.70
2017,09,20,11,24,12.70
2017,09,20,11,25,12.70
2017,09,20,11,26,12.70
2017,09,20,11,27,12.70
2017,09,20,11,28,12.80
2017,09,20,11,29,12.80
2017,09,20,11,30,12.80
2017,09,20,11,31,12.70
2017,09,20,11,32,12.70
2017,09,20,11,33,12.70
2017,09,20,11,34,12.70
2017,09,20,11,35,12.70
2017,09,20,11,36,12.70
2017,09,20,11,37,12.70
2017,09,20,11,38,12.70
2017,09,20,11,39,12.70
2017,09,20,11,40,12.70
2017,09,20,11,41,12.70
2017,09,20,11,42,12.70
2017,09,20,11,43,12.70
2017,09,20,11,44,12.70
2017,09,20,11,45,12.80
2017,09,20,11,46,12.80
2017,09,20,11,47,12.90
2017,09,20,11,48,13.00
2017,09,20,11,49,13.00
2017,09,20,11,50,13.10
2017,09,20,11,51,13.10
2017,09,20,11,52,13.10
2017,09,20,11,53,13.10
2017,09,20,11,54,13.20
2017,09,20,11,55,13.20
2017,09,20,11,56,13.20
2017,09,20,11,57,13.30
2017,09,20,11,58,13.30
2017,09,20,11,59,13.20
2017,09,20,12,00,13.20
2017,09,20,12,01,13.20
2017,09,20,12,02,13.20
2017,09,20,12,03,13.20
2017,09,20,12,04,13.20
2017,09,20,12,05,13.20
2017,09,20,12,06,13.20
2017,09,20,12,07,13.20
2017,09,20,12,08,13.30
2017,09,20,12,09,13.30
2017,09,20,12,10,13.40
2017,09,20,12,11,13.40
2017,09,20,12,12,13.50
2017,09,20,12,13,13.60
2017,09,20,12,14,13.70
2017,09,20,12,15,13.70
2017,09,20,12,16,13.70
2017,09,20,12,17,13.70
2017,09,20,12,18,13.80
2017,09,20,12,19,13.70
2017,09,20,12,20,13.70
2017,09,20,12,21,13.70
2017,09,20,12,22,13.70
2017,09,20,12,23,13.80
2017,09,20,12,24,13.80
2017,09,20,12,25,13.90
2017,09,20,12,26,14.00
2017,09,20,12,27,14.00
2017,09,20,12,28,14.00
2017,09,20,12,29,13.90
2017,09,20,12,30,13.80
2017,09,20,12,31,13.70
2017,09,20,12,32,13.70
2017,09,20,12,33,13.70
2017,09,20,12,34,13.70
2017,09,20,12,35,13.80
2017,09,20,12,36,13.80
2017,09,20,12,37,13.90
2017,09,20,12,38,13.90
2017,09,20,12,39,13.90
2017,09,20,12,40,13.90
2017,09,20,12,41,13.90
2017,09,20,12,42,13.90
2017,09,20,12,43,14.00
2017,09,20,12,44,14.10
2017,09,20,12,45,14.10
2017,09,20,12,46,14.20
2017,09,20,12,47,14.20
2017,09,20,12,48,14.30
2017,09,20,12,49,14.40
2017,09,20,12,50,14.50
2017,09,20,12,51,14.50
2017,09,20,12,52,14.60
2017,09,20,12,53,14.60
2017,09,20,12,54,14.70
2017,09,20,12,55,14.80
2017,09,20,12,56,14.80
2017,09,20,12,57,14.80
2017,09,20,12,58,14.80
2017,09,20,12,59,14.80
2017,09,20,13,00,14.90
2017,09,20,13,01,15.00
2017,09,20,13,02,15.00
2017,09,20,13,03,15.10
2017,09,20,13,04,15.10
2017,09,20,13,05,15.10
2017,09,20,13,06,15.10
2017,09,20,13,07,15.10
2017,09,20,13,08,15.10
2017,09,20,13,09,15.10
2017,09,20,13,10,15.10
2017,09,20,13,11,15.10
2017,09,20,13,12,15.10
2017,09,20,13,13,15.10
2017,09,20,13,14,15.10
2017,09,20,13,15,15.10
2017,09,20,13,16,15.10
2017,09,20,13,17,15.20
2017,09,20,13,18,15.20
2017,09,20,13,19,15.30
2017,09,20,13,20,15.30
2017,09,20,13,21,15.30
2017,09,20,13,22,15.30
2017,09,20,13,23,15.30
2017,09,20,13,24,15.30
2017,09,20,13,25,15.30
2017,09,20,13,26,15.40
2017,09,20,13,27,15.50
2017,09,20,13,28,15.50
2017,09,20,13,29,15.60
2017,09,20,13,30,15.60
2017,09,20,13,31,15.60
2017,09,20,13,32,15.60
2017,09,20,13,33,15.60
2017,09,20,13,34,15.60
2017,09,20,13,35,15.60
2017,09,20,13,36,15.60
2017,09,20,13,37,15.60
2017,09,20,13,38,15.70
2017,09,20,13,39,15.70
2017,09,20,13,40,15.70
2017,09,20,13,41,15.80
2017,09,20,13,42,15.80
2017,09,20,13,43,15.80
2017,09,20,13,44,15.80
2017,09,20,13,45,15.80
2017,09,20,13,46,15.80
2017,09,20,13,47,15.80
2017,09,20,13,48,15.80
2017,09,20,13,49,15.70
2017,09,20,13,50,15.60
2017,09,20,13,51,15.60
2017,09,20,13,52,15.60
2017,09,20,13,53,15.60
2017,09,20,13,54,15.60
2017,09,20,13,55,15.70
2017,09,20,13,56,15.70
2017,09,20,13,57,15.80
2017,09,20,13,58,15.80
2017,09,20,13,59,15.80
2017,09,20,14,00,15.80
2017,09,20,14,01,15.70
2017,09,20,14,02,15.70
2017,09,20,14,03,15.70
2017,09,20,14,04,15.80
2017,09,20,14,05,15.80
2017,09,20,14,06,15.80
2017,09,20,14,07,15.80
2017,09,20,14,08,15.80
2017,09,20,14,09,15.80
2017,09,20,14,10,15.80
2017,09,20,14,11,15.80
2017,09,20,14,12,15.80
2017,09,20,14,13,15.80
2017,09,20,14,14,15.80
2017,09,20,14,15,15.80
2017,09,20,14,16,15.90
2017,09,20,14,17,15.90
2017,09,20,14,18,15.90
2017,09,20,14,19,16.00
2017,09,20,14,20,16.00
2017,09,20,14,21,16.10
2017,09,20,14,22,16.10
2017,09,20,14,23,16.10
2017,09,20,14,24,16.10
2017,09,20,14,25,16.10
2017,09,20,14,26,16.10
2017,09,20,14,27,16.20
2017,09,20,14,28,16.30
2017,09,20,14,29,16.30
2017,09,20,14,30,16.40
2017,09,20,14,31,16.50
2017,09,20,14,32,16.50
2017,09,20,14,33,16.60
2017,09,20,14,34,16.60
2017,09,20,14,35,16.60
2017,09,20,14,36,16.50
2017,09,20,14,37,16.40
2017,09,20,14,38,16.40
2017,09,20,14,39,16.40
2017,09,20,14,40,16.50
2017,09,20,14,41,16.40
2017,09,20,14,42,16.40
2017,09,20,14,43,16.40
2017,09,20,14,44,16.40
2017,09,20,14,45,16.40
2017,09,20,14,46,16.50
2017,09,20,14,47,16.50
2017,09,20,14,48,16.60
2017,09,20,14,49,16.60
2017,09,20,14,50,16.60
2017,09,20,14,51,16.70
2017,09,20,14,52,16.80
2017,09,20,14,53,16.90
2017,09,20,14,54,16.90
2017,09,20,14,55,17.00
2017,09,20,14,56,17.00
2017,09,20,14,57,17.00
2017,09,20,14,58,17.00
2017,09,20,14,59,17.10
2017,09,20,15,00,17.10
2017,09,20,15,01,17.20
2017,09,20,15,02,17.20
2017,09,20,15,03,17.20
2017,09,20,15,04,17.20
2017,09,20,15,05,17.20
2017,09,20,15,06,17.20
2017,09,20,15,07,17.30
2017,09,20,15,08,17.30
2017,09,20,15,09,17.30
2017,09,20,15,10,17.40
2017,09,20,15,11,17.30
2017,09,20,15,12,17.30
2017,09,20,15,13,17.30
2017,09,20,15,14,17.30
2017,09,20,15,15,17.30
2017,09,20,15,16,17.40
2017,09,20,15,17,17.40
2017,09,20,15,18,17.40
2017,09,20,15,19,17.40
2017,09,20,15,20,17.40
2017,09,20,15,21,17.40
2017,09,20,15,22,17.40
2017,09,20,15,23,17.30
2017,09,20,15,24,17.20
2017,09,20,15,25,17.20
2017,09,20,15,26,17.10
2017,09,20,15,27,17.00
2017,09,20,15,28,16.90
2017,09,20,15,29,16.90
2017,09,20,15,30,16.90
2017,09,20,15,31,16.90
2017,09,20,15,32,16.80
2017,09,20,15,33,16.80
2017,09,20,15,34,16.90
2017,09,20,15,35,16.90
2017,09,20,15,36,16.90
2017,09,20,15,37,17.00
2017,09,20,15,38,17.00
2017,09,20,15,39,17.00
2017,09,20,15,40,17.00
2017,09,20,15,41,17.00
2017,09,20,15,42,17.00
2017,09,20,15,43,17.10
2017,09,20,15,44,17.10
2017,09,20,15,45,17.10
2017,09,20,15,46,17.10
2017,09,20,15,47,17.20
2017,09,20,15,48,17.30
2017,09,20,15,49,17.30
2017,09,20,15,50,17.30
2017,09,20,15,51,17.30
2017,09,20,15,52,17.30
2017,09,20,15,53,17.20
2017,09,20,15,54,17.20
2017,09,20,15,55,17.20
2017,09,20,15,56,17.30
2017,09,20,15,57,17.30
2017,09,20,15,58,17.30
2017,09,20,15,59,17.20
2017,09,20,16,00,17.20
2017,09,20,16,01,17.20
2017,09,20,16,02,17.20
2017,09,20,16,03,17.20
2017,09,20,16,04,17.20
2017,09,20,16,05,17.10
2017,09,20,16,06,17.10
2017,09,20,16,07,17.20
2017,09,20,16,08,17.20
2017,09,20,16,09,17.30
2017,09,20,16,10,17.30
2017,09,20,16,11,17.40
2017,09,20,16,12,17.40
2017,09,20,16,13,17.40
2017,09,20,16,14,17.50
2017,09,20,16,15,17.50
2017,09,20,16,16,17.60
2017,09,20,16,17,17.60
2017,09,20,16,18,17.70
2017,09,20,16,19,17.70
2017,09,20,16,20,17.70
2017,09,20,16,21,17.70
2017,09,20,16,22,17.70
2017,09,20,16,23,17.70
2017,09,20,16,24,17.70
2017,09,20,16,25,17.70
2017,09,20,16,26,17.70
2017,09,20,16,27,17.80
2017,09,20,16,28,17.80
2017,09,20,16,29,17.80
2017,09,20,16,30,17.80
2017,09,20,16,31,17.80
2017,09,20,16,32,17.80
2017,09,20,16,33,17.80
2017,09,20,16,34,17.70
2017,09,20,16,35,17.70
2017,09,20,16,36,17.70
2017,09,20,16,37,17.70
2017,09,20,16,38,17.70
2017,09,20,16,39,17.70
2017,09,20,16,40,17.70
2017,09,20,16,41,17.70
2017,09,20,16,42,17.70
2017,09,20,16,43,17.70
2017,09,20,16,44,17.70
2017,09,20,16,45,17.60
2017,09,20,16,46,17.50
2017,09,20,16,47,17.50
2017,09,20,16,48,17.40
2017,09,20,16,49,17.40
2017,09,20,16,50,17.40
2017,09,20,16,51,17.30
2017,09,20,16,52,17.30
2017,09,20,16,53,17.30
2017,09,20,16,54,17.30
2017,09,20,16,55,17.30
2017,09,20,16,56,17.30
2017,09,20,16,57,17.30
2017,09,20,16,58,17.30
2017,09,20,16,59,17.30
2017,09,20,17,00,17.40
2017,09,20,17,01,17.40
2017,09,20,17,02,17.50
2017,09,20,17,03,17.50
2017,09,20,17,04,17.50
2017,09,20,17,05,17.40
2017,09,20,17,06,17.40
2017,09,20,17,07,17.40
2017,09,20,17,08,17.40
2017,09,20,17,09,17.40
2017,09,20,17,10,17.40
2017,09,20,17,11,17.40
2017,09,20,17,12,17.40
2017,09,20,17,13,17.40
2017,09,20,17,14,17.40
2017,09,20,17,15,17.40
2017,09,20,17,16,17.40
2017,09,20,17,17,17.50
2017,09,20,17,18,17.40
2017,09,20,17,19,17.50
2017,09,20,17,20,17.40
2017,09,20,17,21,17.50
2017,09,20,17,22,17.50
2017,09,20,17,23,17.60
2017,09,20,17,24,17.60
2017,09,20,17,25,17.60
2017,09,20,17,26,17.70
2017,09,20,17,27,17.70
2017,09,20,17,28,17.70
2017,09,20,17,29,17.70
2017,09,20,17,30,17.70
2017,09,20,17,31,17.70
2017,09,20,17,32,17.60
2017,09,20,17,33,17.60
2017,09,20,17,34,17.60
2017,09,20,17,35,17.60
2017,09,20,17,36,17.60
2017,09,20,17,37,17.60
2017,09,20,17,38,17.60
2017,09,20,17,39,17.60
2017,09,20,17,40,17.60
2017,09,20,17,41,17.60
2017,09,20,17,42,17.60
2017,09,20,17,43,17.60
2017,09,20,17,44,17.60